[[{"header":{"parameterUnit":"m.s-1","parameterCategory":1,"la1":30.2991,"la2":30.254,"lo1":-89.0895,"lo2":-89.0444,"dy":0.0017,"dx":0.0017,"nx":28,"ny":28,"refTime":"2024-05-19T21:00:00:Z","depth":0,"parameterNumber":2,"parameterNumberName":"U-component_of_WINDS"},"data":[0,0,0,0,0,0,0,0,0,0,0,0,0,0,0,0,0,0,0,0,0,0,0,0,0,0,0,0,0,0,0,0,0,0,0,0,0,0,0,0,0,0,0,0,0,0,0,0,0,0,0,0,0,0,0,0,0,0,-2.7089,-2.7089,0,-2.7066,-2.7065,-2.7065,-2.7027,-2.7026,-2.7025,-2.7025,-2.7002,-2.7002,-2.7002,0,0,0,0,0,0,0,0,0,0,0,0,0,-2.7105,-2.7105,-2.7089,-2.7089,-2.7089,-2.7066,-2.7065,-2.7065,-2.7027,-2.7026,-2.7025,-2.7024,-2.7002,-2.7002,-2.7002,0,0,0,0,0,0,0,0,0,0,0,0,0,-2.7091,-2.7105,-2.7089,-2.7067,-2.7064,-2.7066,-2.7065,-2.7065,-2.7027,-2.7026,-2.7025,-2.7024,-2.7002,-2.7002,-2.7002,-2.7024,0,0,-2.7002,-2.7002,0,0,0,0,0,0,0,0,-2.7092,-2.7091,-2.707,-2.7068,-2.7066,-2.7048,-2.7063,-2.7051,-2.7027,-2.7041,-2.7025,-2.7023,-2.7018,-2.7017,-2.7015,-2.7023,-2.7022,-2.7002,-2.7002,-2.7002,-2.7002,0,0,0,0,0,0,0,-2.7093,-2.7092,-2.708,-2.707,-2.7067,-2.7059,-2.7056,-2.706,-2.7036,-2.704,-2.7037,-2.7035,-2.7017,-2.7015,-2.7014,-2.7021,-2.7002,-2.7002,-2.7002,-2.7002,-2.7049,-2.7051,0,0,0,0,0,0,-2.7097,-2.7093,-2.7081,-2.7079,-2.7077,-2.706,-2.7056,-2.7055,-2.7036,-2.7032,-2.7036,-2.7033,-2.7015,-2.7014,-2.7013,-2.7038,-2.7002,-2.7002,-2.7002,-2.7048,-2.705,-2.7051,0,0,0,0,0,0,-2.7098,-2.7096,-2.7082,-2.7085,-2.7083,-2.7061,-2.7059,-2.7055,-2.7053,-2.7033,-2.7028,-2.7038,-2.7014,-2.7013,-2.7022,-2.7037,-2.7002,-2.7003,-2.7047,-2.7049,-2.705,-2.7088,0,0,0,0,0,0,-2.7098,-2.7097,-2.7103,-2.7086,-2.7083,-2.709,-2.706,-2.7055,-2.7053,-2.7049,-2.7033,-2.703,-2.7013,-2.7022,-2.7022,-2.7036,-2.7003,-2.7045,-2.7048,-2.705,-2.7085,-2.7091,-2.7096,0,0,0,0,0,-2.7099,-2.7115,-2.7104,-2.7103,-2.709,-2.709,-2.7089,-2.7069,-2.7054,-2.7062,-2.7049,-2.703,-2.7036,-2.7023,-2.7023,-2.7037,-2.7044,-2.7047,-2.705,-2.7083,-2.709,-2.7096,0,0,0,0,0,0,-2.7134,-2.7112,-2.7099,-2.711,-2.7103,-2.7084,-2.7092,-2.7077,-2.7073,-2.707,-2.7046,-2.7043,-2.7056,-2.7048,-2.7034,-2.7059,-2.7037,-2.704,-2.7063,-2.7069,-2.7075,-2.7075,-2.7003,0,0,0,0,0,-2.7143,-2.7144,-2.7125,-2.7136,-2.7133,-2.7114,-2.7113,-2.7099,-2.709,-2.7087,-2.7075,-2.7068,-2.7069,-2.7069,-2.7068,-2.7086,-2.7082,-2.7096,-2.7101,-2.7106,-2.7107,-2.7118,-2.7124,-2.706,-2.706,-2.706,0,0,-2.7162,-2.715,-2.7151,-2.7143,-2.7136,-2.7138,-2.7111,-2.7114,-2.7117,-2.7087,-2.7095,-2.7087,-2.7078,-2.7092,-2.7097,-2.7086,-2.7125,-2.7109,-2.7113,-2.7112,-2.7121,-2.7127,-2.7133,-2.7062,-2.7061,-2.7061,0,0,-2.7196,-2.7187,-2.7196,-2.719,-2.7179,-2.7167,-2.717,-2.7154,-2.7148,-2.7155,-2.7134,-2.7138,-2.7139,-2.7134,-2.7131,-2.717,-2.7152,-2.717,-2.7196,-2.7207,-2.7212,-2.7216,-2.723,-2.7235,-2.7173,-2.7173,-2.7173,0,-2.722,-2.7222,-2.7203,-2.7208,-2.7206,-2.7181,-2.7191,-2.7186,-2.7176,-2.7176,-2.7164,-2.7166,-2.7158,-2.7171,-2.7181,-2.718,-2.7183,-2.717,-2.7213,-2.7217,-2.7221,-2.7233,-2.7239,-2.7175,-2.7175,-2.7175,-2.7175,0,-2.7252,-2.7255,-2.7264,-2.7255,-2.7254,-2.7262,-2.7245,-2.7247,-2.7235,-2.7225,-2.7235,-2.7226,-2.7223,-2.7226,-2.7213,-2.7238,-2.7232,-2.7217,-2.7194,-2.7229,-2.7241,-2.7246,-2.7178,-2.7177,-2.7177,-2.7176,0,0,-2.7303,-2.7287,-2.7291,-2.7288,-2.7277,-2.7278,-2.7287,-2.7285,-2.7288,-2.7284,-2.729,-2.7294,-2.7281,-2.7278,-2.7266,-2.7276,-2.7308,-2.726,-2.7259,-2.7268,-2.7336,-2.7346,-2.7351,-2.7298,-2.7299,-2.7299,-2.7336,0,-2.7334,-2.7346,-2.7331,-2.7346,-2.7349,-2.7328,-2.7336,-2.7331,-2.7323,-2.7326,-2.7318,-2.7321,-2.7303,-2.7302,-2.7311,-2.7302,-2.7321,-2.7299,-2.7304,-2.7305,-2.7304,-2.7357,-2.7367,-2.7402,-2.7341,-2.7341,-2.7342,0,-2.737,-2.7369,-2.7384,-2.7375,-2.7376,-2.7382,-2.7381,-2.7384,-2.7379,-2.7373,-2.7373,-2.7359,-2.7369,-2.7349,-2.7363,-2.7349,-2.7351,-2.7348,-2.7349,-2.7346,-2.7323,-2.7355,-2.7412,-2.7417,-2.7349,-2.7348,-2.7348,0,-2.7405,-2.7407,-2.7417,-2.7416,-2.7405,-2.7411,-2.7407,-2.7401,-2.7402,-2.7402,-2.7403,-2.7405,-2.7405,-2.7407,-2.7395,-2.7382,-2.7411,-2.739,-2.7406,-2.7407,-2.7411,-2.741,-2.7467,-2.7416,-2.7415,-2.7415,-2.7415,0,-2.744,-2.745,-2.7433,-2.7439,-2.7451,-2.7436,-2.7448,-2.7443,-2.7439,-2.7445,-2.7429,-2.7435,-2.7419,-2.7425,-2.7416,-2.7429,-2.743,-2.7426,-2.7423,-2.7426,-2.7426,-2.7425,-2.7421,-2.7417,-2.7416,-2.7416,-2.7416,0,-2.7479,-2.7468,-2.7478,-2.7468,-2.7467,-2.7476,-2.7469,-2.7475,-2.7468,-2.7476,-2.7477,-2.7466,-2.7472,-2.7461,-2.7465,-2.746,-2.7478,-2.7472,-2.7479,-2.7477,-2.7493,-2.7492,-2.755,-2.7557,-2.7502,-2.7503,-2.7504,0,-2.75,-2.7508,-2.7501,-2.7503,-2.7501,-2.7505,-2.7507,-2.7494,-2.7496,-2.7494,-2.7501,-2.7506,-2.7508,-2.7519,-2.7512,-2.7517,-2.751,-2.7531,-2.751,-2.7514,-2.7509,-2.7508,-2.7509,-2.7534,-2.7534,-2.7535,-2.7535,0,-2.754,-2.7535,-2.7537,-2.7539,-2.7541,-2.7542,-2.7541,-2.7545,-2.7532,-2.7536,-2.7542,-2.7544,-2.755,-2.7555,-2.7559,-2.7556,-2.7544,-2.7543,-2.7546,-2.7548,-2.7551,-2.7549,-2.7488,-2.754,-2.754,-2.7539,-2.7539,-2.7539,-2.757,-2.7577,-2.7573,-2.7577,-2.7576,-2.7577,-2.7583,-2.7578,-2.7582,-2.7585,-2.7579,-2.7587,-2.7586,-2.7589,-2.7589,-2.7596,-2.7587,-2.7593,-2.7594,-2.7595,-2.7598,-2.7553,-2.7597,-2.7597,-2.7597,-2.7597,-2.7597,0,-2.7608,-2.7605,-2.761,-2.761,-2.7614,-2.7604,-2.7604,-2.7608,-2.7615,-2.7616,-2.762,-2.7628,-2.7634,-2.763,-2.7636,-2.7643,-2.7637,-2.7644,-2.7643,-2.7643,-2.7605,-2.7601,-2.7649,-2.7649,-2.7649,-2.7649,-2.7649,-2.7649,-2.7627,-2.7638,-2.7634,-2.7645,-2.7644,-2.7651,-2.7652,-2.7654,-2.7654,-2.7664,-2.7669,-2.7667,-2.7666,-2.7672,-2.7678,-2.7677,-2.768,-2.7689,-2.7685,-2.765,-2.7645,-2.764,-2.7636,-2.769,-2.769,-2.7722,-2.7722,-2.7722]},{"header":{"parameterUnit":"m.s-1","parameterCategory":1,"la1":30.2991,"la2":30.254,"lo1":-89.0895,"lo2":-89.0444,"dy":0.0017,"dx":0.0017,"nx":28,"ny":28,"refTime":"2024-05-19T21:00:00:Z","depth":0,"parameterNumber":3,"parameterNumberName":"V-component_of_WINDS"},"data":[0,0,0,0,0,0,0,0,0,0,0,0,0,0,0,0,0,0,0,0,0,0,0,0,0,0,0,0,0,0,0,0,0,0,0,0,0,0,0,0,0,0,0,0,0,0,0,0,0,0,0,0,0,0,0,0,0,0,2.4928,2.4927,0,2.4912,2.4912,2.4912,2.4968,2.497,2.4971,2.4973,2.4951,2.4949,2.4947,0,0,0,0,0,0,0,0,0,0,0,0,0,2.4999,2.4998,2.4928,2.4927,2.4927,2.4912,2.4912,2.4912,2.4968,2.497,2.4972,2.4974,2.4952,2.4949,2.4947,0,0,0,0,0,0,0,0,0,0,0,0,0,2.4974,2.4997,2.4928,2.4954,2.4956,2.4913,2.4912,2.4912,2.4967,2.497,2.4972,2.4975,2.4953,2.4949,2.4946,2.4875,0,0,2.4936,2.4935,0,0,0,0,0,0,0,0,2.4976,2.4972,2.495,2.4952,2.4954,2.4945,2.493,2.4899,2.4967,2.4963,2.4973,2.4976,2.4946,2.4944,2.4935,2.4874,2.4873,2.4936,2.4934,2.4933,2.4932,0,0,0,0,0,0,0,2.4977,2.4973,2.4921,2.4949,2.4952,2.4964,2.4963,2.4924,2.494,2.4963,2.4967,2.4965,2.4948,2.4938,2.4935,2.4873,2.4936,2.4933,2.4931,2.493,2.4753,2.475,0,0,0,0,0,0,2.4976,2.4974,2.4922,2.4921,2.4972,2.4961,2.496,2.4945,2.4941,2.4943,2.4963,2.4968,2.4943,2.4939,2.4935,2.4851,2.4933,2.493,2.4928,2.4756,2.4752,2.4749,0,0,0,0,0,0,2.4978,2.4971,2.4923,2.4948,2.4943,2.4957,2.494,2.4943,2.4934,2.4941,2.4943,2.495,2.4944,2.4939,2.489,2.4851,2.4928,2.4925,2.4759,2.4755,2.4751,2.4683,0,0,0,0,0,0,2.498,2.4972,2.4946,2.4948,2.4942,2.488,2.4937,2.4941,2.4929,2.4935,2.493,2.4931,2.4946,2.4895,2.4887,2.4848,2.4923,2.4762,2.4757,2.4752,2.4689,2.4677,2.4667,0,0,0,0,0,2.4982,2.4926,2.4945,2.4938,2.491,2.4878,2.4874,2.4894,2.4926,2.4899,2.4904,2.4931,2.4857,2.4889,2.4881,2.484,2.4765,2.4758,2.4752,2.4694,2.468,2.4668,0,0,0,0,0,0,2.4917,2.4927,2.4947,2.4891,2.4883,2.4887,2.4854,2.4878,2.486,2.4866,2.489,2.4888,2.4834,2.4833,2.4868,2.4771,2.4816,2.4808,2.4774,2.4761,2.475,2.4751,2.492,0,0,0,0,0,2.4897,2.4872,2.4881,2.483,2.4825,2.484,2.4827,2.4843,2.4835,2.4832,2.4833,2.4822,2.4797,2.4779,2.4756,2.469,2.4688,2.4658,2.4647,2.4638,2.463,2.4594,2.458,2.4729,2.4729,2.4729,0,0,2.4854,2.4856,2.4838,2.4817,2.4813,2.4784,2.4837,2.4804,2.4782,2.4826,2.478,2.478,2.477,2.4712,2.4687,2.4709,2.4589,2.463,2.4623,2.462,2.4586,2.4572,2.4559,2.4725,2.4725,2.4726,0,0,2.476,2.476,2.4718,2.4713,2.4707,2.4718,2.4708,2.4708,2.4711,2.4666,2.4698,2.4671,2.4627,2.4618,2.4608,2.4512,2.4536,2.4503,2.4446,2.441,2.4399,2.4388,2.4353,2.434,2.4496,2.4495,2.4495,0,2.4707,2.4666,2.4692,2.4658,2.4647,2.4687,2.4643,2.4637,2.4623,2.4613,2.4639,2.4585,2.4581,2.4521,2.4498,2.4488,2.4476,2.4503,2.4399,2.4389,2.4379,2.4346,2.4332,2.4491,2.4492,2.4492,2.4493,0,2.46,2.4572,2.4538,2.4526,2.4511,2.4472,2.449,2.4471,2.4489,2.4496,2.4449,2.4446,2.4423,2.441,2.4426,2.4352,2.4367,2.4395,2.444,2.4361,2.4329,2.4317,2.4486,2.4487,2.4488,2.4489,0,0,2.4464,2.4468,2.4455,2.4449,2.4446,2.4424,2.4386,2.4365,2.4349,2.4337,2.4305,2.4267,2.4294,2.4282,2.4298,2.4267,2.419,2.4299,2.4299,2.4278,2.4106,2.4084,2.4068,2.4206,2.4204,2.4202,2.4107,0,2.4371,2.4309,2.4331,2.4266,2.4239,2.4278,2.4245,2.4238,2.4244,2.422,2.4226,2.4199,2.4237,2.423,2.4201,2.4205,2.4155,2.4212,2.4174,2.4172,2.4174,2.4052,2.4028,2.3938,2.4095,2.4093,2.4091,0,2.4255,2.4241,2.4174,2.4176,2.4165,2.4135,2.4118,2.4096,2.4089,2.4095,2.4083,2.4105,2.4066,2.4112,2.4058,2.4096,2.4082,2.4082,2.4079,2.4074,2.4126,2.4043,2.391,2.3896,2.4072,2.4074,2.4075,0,2.4161,2.4126,2.4081,2.4076,2.4077,2.4054,2.4053,2.4049,2.4035,2.402,2.4011,2.399,2.3978,2.396,2.3976,2.4008,2.3918,2.3966,2.392,2.392,2.3898,2.3899,2.3759,2.3891,2.3892,2.3892,2.3892,0,2.4054,2.4011,2.4039,2.4011,2.3964,2.3989,2.3941,2.3944,2.394,2.3912,2.3944,2.3916,2.3939,2.3913,2.3925,2.3877,2.3872,2.3874,2.3878,2.3871,2.387,2.3861,2.3867,2.3888,2.3889,2.389,2.389,0,2.3941,2.3958,2.3912,2.3917,2.3917,2.3882,2.3886,2.3859,2.3868,2.3832,2.3825,2.3838,2.3809,2.3824,2.3793,2.3801,2.3739,2.3751,2.3742,2.3745,2.3698,2.3701,2.3546,2.3526,2.3672,2.367,2.3669,0,2.3871,2.3839,2.3842,2.3827,2.3824,2.3799,2.3786,2.3809,2.3793,2.3783,2.3757,2.3732,2.3713,2.3665,2.367,2.3646,2.3657,2.3605,2.3654,2.3648,2.3655,2.3656,2.3653,2.3594,2.3592,2.3591,2.359,0,2.3745,2.3755,2.3736,2.3719,2.3703,2.369,2.368,2.3665,2.3689,2.3669,2.3641,2.3627,2.3597,2.357,2.355,2.3547,2.3571,2.3575,2.3562,2.3554,2.355,2.355,2.3713,2.3577,2.3579,2.358,2.358,2.3581,2.365,2.3624,2.3622,2.3599,2.3594,2.3584,2.356,2.3566,2.3544,2.3523,2.3538,2.3504,2.3497,2.3473,2.3467,2.344,2.3461,2.3443,2.3439,2.3434,2.3427,2.3555,2.3436,2.3437,2.3437,2.3437,2.3438,0,2.3525,2.3526,2.3505,2.3491,2.3472,2.35,2.349,2.3472,2.3443,2.3436,2.3417,2.3384,2.3359,2.3363,2.3339,2.3317,2.3327,2.331,2.3311,2.3309,2.341,2.3423,2.3302,2.3302,2.3302,2.3302,2.3302,2.3302,2.3458,2.3414,2.3424,2.3378,2.3379,2.3348,2.334,2.333,2.3324,2.3287,2.3267,2.3271,2.3267,2.3244,2.3221,2.3223,2.3212,2.319,2.3195,2.3289,2.3302,2.3315,2.3327,2.3188,2.3187,2.3097,2.3096,2.3095]}]]